When you browse on this site, cookies collect data to enhance your experience and personalize the content and advertising you see.
Visit our Privacy Policy to learn more. By continuing to use the site, you agree to this use of cookies and data.
  • In Norway
  • List of Countries
  • For 7 days
  • Water Temperature
  • Satellite Maps
  • Weather Map
  • Weather Widgets
  • user-avatar
    Login

    Hourly Weather Namibe

    Today, 23 May, Thursday

    Time Temperature Precipitation Wind Pressure Humidity
    00:00 +24°C° 0 mm 3 mps 759 mmHg 66%
    01:00 +24°C° 0 mm 2 mps 759 mmHg 65%
    02:00 +24°C° 0 mm 2 mps 758 mmHg 65%
    03:00 +24°C° 0 mm 2 mps 758 mmHg 65%
    04:00 +24°C° 0 mm 2 mps 758 mmHg 65%
    05:00 +24°C° 0 mm 2 mps 758 mmHg 64%
    06:00 +24°C° 0 mm 2 mps 758 mmHg 63%
    07:00 +24°C° 0 mm 2 mps 758 mmHg 62%
    08:00 +26°C° 0 mm 2 mps 759 mmHg 55%
    09:00 +28°C° 0 mm 2 mps 759 mmHg 49%
    10:00 +29°C° 0 mm 2 mps 759 mmHg 42%
    11:00 +30°C° 0 mm 3 mps 758 mmHg 40%
    12:00 +32°C° 0 mm 4 mps 758 mmHg 38%
    13:00 +33°C° 0 mm 5 mps 757 mmHg 36%
    14:00 +33°C° 0 mm 5 mps 757 mmHg 38%
    15:00 +32°C° 0 mm 5 mps 757 mmHg 40%
    16:00 +30°C° 0 mm 6 mps 756 mmHg 43%
    17:00 +29°C° 0 mm 5 mps 756 mmHg 46%
    18:00 +28°C° 0 mm 4 mps 757 mmHg 49%
    19:00 +27°C° 0 mm 4 mps 757 mmHg 53%
    20:00 +27°C° 0 mm 3 mps 758 mmHg 52%
    21:00 +27°C° 0 mm 3 mps 758 mmHg 52%
    22:00 +26°C° 0 mm 2 mps 758 mmHg 52%
    23:00 +26°C° 0 mm 2 mps 758 mmHg 52%

    Tomorrow, 24 May, Friday

    Time Temperature Precipitation Wind Pressure Humidity
    00:00 +26°C° 0 mm 2 mps 758 mmHg 52%
    01:00 +26°C° 0 mm 2 mps 758 mmHg 52%
    02:00 +26°C° 0 mm 2 mps 758 mmHg 53%
    03:00 +26°C° 0 mm 3 mps 758 mmHg 53%
    04:00 +25°C° 0 mm 3 mps 758 mmHg 53%
    05:00 +26°C° 0 mm 2 mps 758 mmHg 52%
    06:00 +26°C° 0 mm 2 mps 758 mmHg 51%
    07:00 +26°C° 0 mm 1 mps 758 mmHg 50%
    08:00 +28°C° 0 mm 1 mps 758 mmHg 44%
    09:00 +30°C° 0 mm 1 mps 759 mmHg 39%
    10:00 +32°C° 0 mm 2 mps 759 mmHg 33%
    11:00 +34°C° 0 mm 3 mps 758 mmHg 32%
    12:00 +35°C° 0 mm 4 mps 758 mmHg 32%
    13:00 +35°C° 0 mm 4 mps 757 mmHg 31%
    14:00 +34°C° 0 mm 5 mps 757 mmHg 34%
    15:00 +34°C° 0 mm 5 mps 756 mmHg 36%
    16:00 +33°C° 0 mm 5 mps 756 mmHg 39%
    17:00 +30°C° 0 mm 4 mps 756 mmHg 42%
    18:00 +29°C° 0 mm 3 mps 757 mmHg 45%
    19:00 +28°C° 0 mm 2 mps 757 mmHg 48%
    20:00 +28°C° 0 mm 2 mps 757 mmHg 47%
    21:00 +28°C° 0 mm 2 mps 758 mmHg 46%
    22:00 +28°C° 0 mm 1 mps 759 mmHg 45%
    23:00 +28°C° 0 mm 1 mps 758 mmHg 44%

    Day after tomorrow, 25 May, Saturday

    Time Temperature Precipitation Wind Pressure Humidity
    00:00 +28°C° 0 mm 2 mps 758 mmHg 44%
    01:00 +28°C° 0 mm 2 mps 758 mmHg 44%
    02:00 +27°C° 0 mm 2 mps 758 mmHg 45%
    03:00 +27°C° 0 mm 2 mps 758 mmHg 45%
    04:00 +27°C° 0 mm 3 mps 757 mmHg 46%
    05:00 +27°C° 0 mm 3 mps 757 mmHg 47%
    06:00 +27°C° 0 mm 2 mps 758 mmHg 48%
    07:00 +26°C° 0 mm 2 mps 758 mmHg 49%
    08:00 +29°C° 0 mm 2 mps 758 mmHg 43%
    09:00 +31°C° 0 mm 2 mps 758 mmHg 37%
    10:00 +34°C° 0 mm 2 mps 758 mmHg 31%
    11:00 +35°C° 0 mm 3 mps 758 mmHg 30%
    12:00 +35°C° 0 mm 4 mps 757 mmHg 30%
    13:00 +36°C° 0 mm 6 mps 756 mmHg 30%
    14:00 +35°C° 0 mm 5 mps 756 mmHg 33%
    15:00 +34°C° 0 mm 5 mps 755 mmHg 36%
    16:00 +33°C° 0 mm 5 mps 755 mmHg 39%
    17:00 +32°C° 0 mm 4 mps 755 mmHg 41%
    18:00 +29°C° 0 mm 4 mps 756 mmHg 44%
    19:00 +28°C° 0 mm 4 mps 756 mmHg 47%
    20:00 +28°C° 0 mm 4 mps 757 mmHg 47%
    21:00 +28°C° 0 mm 3 mps 757 mmHg 46%
    22:00 +28°C° 0 mm 3 mps 758 mmHg 46%
    23:00 +27°C° 0 mm 3 mps 758 mmHg 47%

    26 May, Sunday

    Time Temperature Precipitation Wind Pressure Humidity
    00:00 +27°C° 0 mm 3 mps 758 mmHg 48%
    01:00 +27°C° 0 mm 3 mps 757 mmHg 49%
    02:00 +27°C° 0 mm 3 mps 757 mmHg 49%
    03:00 +27°C° 0 mm 3 mps 757 mmHg 48%
    04:00 +27°C° 0 mm 3 mps 757 mmHg 48%
    05:00 +27°C° 0 mm 3 mps 757 mmHg 48%
    06:00 +26°C° 0 mm 3 mps 757 mmHg 49%
    07:00 +26°C° 0 mm 2 mps 758 mmHg 49%
    08:00 +28°C° 0 mm 2 mps 758 mmHg 44%
    09:00 +30°C° 0 mm 2 mps 758 mmHg 39%
    10:00 +32°C° 0 mm 2 mps 758 mmHg 34%
    11:00 +34°C° 0 mm 3 mps 758 mmHg 33%
    12:00 +34°C° 0 mm 4 mps 757 mmHg 31%
    13:00 +35°C° 0 mm 5 mps 756 mmHg 30%
    14:00 +34°C° 0 mm 5 mps 756 mmHg 34%
    15:00 +33°C° 0 mm 5 mps 755 mmHg 39%
    16:00 +30°C° 0 mm 6 mps 755 mmHg 43%
    17:00 +29°C° 0 mm 5 mps 756 mmHg 47%
    18:00 +28°C° 0 mm 4 mps 756 mmHg 50%
    19:00 +27°C° 0 mm 4 mps 757 mmHg 54%
    20:00 +27°C° 0 mm 3 mps 757 mmHg 52%
    21:00 +27°C° 0 mm 2 mps 758 mmHg 51%
    22:00 +27°C° 0 mm 1 mps 758 mmHg 50%
    23:00 +27°C° 0 mm 2 mps 758 mmHg 50%

    27 May, Monday

    Time Temperature Precipitation Wind Pressure Humidity
    00:00 +26°C° 0 mm 2 mps 758 mmHg 51%
    01:00 +26°C° 0 mm 2 mps 758 mmHg 51%
    02:00 +26°C° 0 mm 2 mps 758 mmHg 53%
    03:00 +25°C° 0 mm 3 mps 757 mmHg 55%
    04:00 +24°C° 0 mm 3 mps 757 mmHg 57%
    05:00 +25°C° 0 mm 3 mps 758 mmHg 57%
    06:00 +25°C° 0 mm 2 mps 758 mmHg 56%
    07:00 +25°C° 0 mm 1 mps 758 mmHg 55%
    08:00 +27°C° 0 mm 1 mps 758 mmHg 48%
    09:00 +29°C° 0 mm 1 mps 758 mmHg 41%
    10:00 +31°C° 0 mm 1 mps 758 mmHg 34%
    11:00 +32°C° 0 mm 2 mps 757 mmHg 33%
    12:00 +34°C° 0 mm 3 mps 757 mmHg 32%
    13:00 +35°C° 0 mm 4 mps 756 mmHg 31%
    14:00 +33°C° 0 mm 4 mps 756 mmHg 35%
    15:00 +32°C° 0 mm 4 mps 756 mmHg 40%
    16:00 +30°C° 0 mm 4 mps 755 mmHg 44%
    17:00 +29°C° 0 mm 3 mps 756 mmHg 49%
    18:00 +27°C° 0 mm 3 mps 756 mmHg 55%
    19:00 +26°C° 0 mm 2 mps 757 mmHg 60%
    20:00 +26°C° 0 mm 2 mps 757 mmHg 58%
    21:00 +26°C° 0 mm 2 mps 758 mmHg 56%
    22:00 +27°C° 0 mm 1 mps 758 mmHg 54%
    23:00 +26°C° 0 mm 1 mps 758 mmHg 54%

    28 May, Tuesday

    Time Temperature Precipitation Wind Pressure Humidity
    00:00 +26°C° 0 mm 1 mps 758 mmHg 54%
    01:00 +26°C° 0 mm 1 mps 757 mmHg 54%
    02:00 +26°C° 0 mm 2 mps 757 mmHg 54%
    03:00 +25°C° 0 mm 2 mps 757 mmHg 55%
    04:00 +25°C° 0 mm 2 mps 757 mmHg 55%
    05:00 +25°C° 0 mm 2 mps 757 mmHg 56%
    06:00 +25°C° 0 mm 1 mps 758 mmHg 56%
    07:00 +25°C° 0 mm 1 mps 758 mmHg 57%
    08:00 +26°C° 0 mm 1 mps 758 mmHg 51%
    09:00 +28°C° 0 mm 1 mps 758 mmHg 46%
    10:00 +29°C° 0 mm 1 mps 758 mmHg 41%
    11:00 +30°C° 0 mm 2 mps 757 mmHg 39%
    12:00 +31°C° 0 mm 3 mps 757 mmHg 36%
    13:00 +33°C° 0 mm 4 mps 756 mmHg 34%
    14:00 +33°C° 0 mm 4 mps 756 mmHg 36%
    15:00 +32°C° 0 mm 5 mps 755 mmHg 38%
    16:00 +30°C° 0 mm 5 mps 755 mmHg 40%
    17:00 +29°C° 0 mm 4 mps 756 mmHg 44%
    18:00 +28°C° 0 mm 3 mps 756 mmHg 48%
    19:00 +27°C° 0 mm 3 mps 757 mmHg 52%
    20:00 +26°C° 0 mm 3 mps 757 mmHg 52%
    21:00 +26°C° 0 mm 2 mps 757 mmHg 51%
    22:00 +26°C° 0 mm 2 mps 758 mmHg 51%
    23:00 +26°C° 0 mm 2 mps 758 mmHg 51%
    Show more